Starlink 35710

operational
NORAD ID: 66212 Int'l Des: 2025-244 Owner: SPXS Country: US Constellation: starlink
NOTLE

关于 Starlink 35710

正在加载描述...

实时位置

正在加载3D地球...

即将过境

高度历史

Altitude vs Time

uPlot chart will show altitude changes over time

两行轨道根数

1 66212U 25244G 25353.00002315 .00014604 00000-0 37452-3 0 9992
2 66212 53.1603 246.5296 0001189 81.3375 145.3746 15.39608152 5978
Epoch: Dec 19, 2025 • Age: 5 hours

当前状态

高度 447.1 km
速度 7.65 km/s
星下点 15.06°N, 88.98°E
发射日期 Oct 28, 2025
运行时间 0.1 years
类型 internet

技术详情

分类 Payload
质量 575.00 kg
干质量 530.00 kg
总质量 575.00 kg
长度 0.30 m
直径 4.10 m
跨度 29.00 m
形状 Box + pan
制造商 SPXS
平台类型 Starlink V2MO
阶段状态 In Orbit
所有者/国家 SPXS/US

大型星座

Loading constellations...